Time,TemperatureF,DewpointF,PressureIn,WindDirection,WindDirectionDegrees,WindSpeedMPH,WindSpeedGustMPH,Humidity,HourlyPrecipIn,Conditions,Clouds,dailyrainin,SoftwareType,DateUTC
2015-03-27 00:02:00,62.3,31.9,30.06,SE,135,1.0,1.0,32,0.00,,,0.00,WUHU216HW,2015-03-27 07:02:00,
2015-03-27 00:07:00,62.1,31.8,30.06,SSE,154,1.0,1.0,32,0.00,,,0.00,WUHU216HW,2015-03-27 07:07:00,
2015-03-27 00:12:00,61.9,31.6,30.06,SE,139,1.0,1.0,32,0.00,,,0.00,WUHU216HW,2015-03-27 07:12:00,
2015-03-27 00:17:00,61.6,31.2,30.06,SE,126,1.0,1.0,32,0.00,,,0.00,WUHU216HW,2015-03-27 07:17:00,
2015-03-27 00:22:00,61.6,31.2,30.06,SE,136,1.0,1.0,32,0.00,,,0.00,WUHU216HW,2015-03-27 07:22:00,
2015-03-27 00:27:00,61.6,31.2,30.06,SE,131,0.0,1.0,32,0.00,,,0.00,WUHU216HW,2015-03-27 07:27:00,
2015-03-27 00:32:00,61.6,30.5,30.06,SE,135,0.0,1.0,31,0.00,,,0.00,WUHU216HW,2015-03-27 07:32:00,
2015-03-27 00:37:00,61.6,31.2,30.06,SE,135,1.0,1.0,32,0.00,,,0.00,WUHU216HW,2015-03-27 07:37:00,
2015-03-27 00:42:00,61.4,30.3,30.06,SE,135,1.0,1.0,31,0.00,,,0.00,WUHU216HW,2015-03-27 07:42:00,
2015-03-27 00:47:00,61.2,31.0,30.06,SE,135,0.0,0.0,32,0.00,,,0.00,WUHU216HW,2015-03-27 07:47:00,
2015-03-27 00:52:00,60.8,30.6,30.06,SE,135,1.0,1.0,32,0.00,,,0.00,WUHU216HW,2015-03-27 07:52:00,
2015-03-27 00:57:00,60.7,30.4,30.05,SE,135,0.0,0.0,32,0.00,,,0.00,WUHU216HW,2015-03-27 07:57:00,
2015-03-27 01:02:00,60.5,30.3,30.06,SE,135,1.0,2.0,32,0.00,,,0.00,WUHU216HW,2015-03-27 08:02:00,
2015-03-27 01:07:00,60.3,30.2,30.06,SE,140,1.0,1.0,32,0.00,,,0.00,WUHU216HW,2015-03-27 08:07:00,
2015-03-27 01:12:00,60.1,30.7,30.06,SE,135,1.0,1.0,33,0.00,,,0.00,WUHU216HW,2015-03-27 08:12:00,
2015-03-27 01:17:00,59.9,30.6,30.06,SE,135,1.0,1.0,33,0.00,,,0.00,WUHU216HW,2015-03-27 08:17:00,
2015-03-27 01:22:00,59.9,30.6,30.06,SE,138,1.0,1.0,33,0.00,,,0.00,WUHU216HW,2015-03-27 08:22:00,
2015-03-27 01:27:00,59.9,30.6,30.06,SSE,152,0.0,0.0,33,0.00,,,0.00,WUHU216HW,2015-03-27 08:27:00,
2015-03-27 01:32:00,59.8,30.4,30.06,SSE,158,0.0,0.0,33,0.00,,,0.00,WUHU216HW,2015-03-27 08:32:00,
2015-03-27 01:37:00,59.6,30.2,30.06,SE,146,0.0,0.0,33,0.00,,,0.00,WUHU216HW,2015-03-27 08:37:00,
2015-03-27 01:42:00,59.4,30.2,30.06,SE,141,1.0,1.0,33,0.00,,,0.00,WUHU216HW,2015-03-27 08:42:00,
2015-03-27 01:47:00,59.4,30.2,30.06,SE,135,1.0,1.0,33,0.00,,,0.00,WUHU216HW,2015-03-27 08:47:00,
2015-03-27 01:52:00,59.2,30.0,30.06,SE,135,1.0,1.0,33,0.00,,,0.00,WUHU216HW,2015-03-27 08:52:00,
2015-03-27 01:57:00,59.2,30.0,30.06,SE,135,1.0,1.0,33,0.00,,,0.00,WUHU216HW,2015-03-27 08:57:00,
2015-03-27 02:02:00,59.0,29.8,30.06,SE,135,0.0,1.0,33,0.00,,,0.00,WUHU216HW,2015-03-27 09:02:00,
2015-03-27 02:07:00,59.0,29.8,30.05,SE,135,1.0,1.0,33,0.00,,,0.00,WUHU216HW,2015-03-27 09:07:00,
2015-03-27 02:12:00,59.0,29.8,30.05,SE,144,1.0,1.0,33,0.00,,,0.00,WUHU216HW,2015-03-27 09:12:00,
2015-03-27 02:17:00,59.0,29.8,30.05,SE,146,1.0,2.0,33,0.00,,,0.00,WUHU216HW,2015-03-27 09:17:00,
2015-03-27 02:22:00,59.0,29.8,30.05,SE,140,1.0,1.0,33,0.00,,,0.00,WUHU216HW,2015-03-27 09:22:00,
2015-03-27 02:27:00,59.0,30.5,30.05,SE,140,1.0,1.0,34,0.00,,,0.00,WUHU216HW,2015-03-27 09:27:00,
2015-03-27 02:32:00,59.0,30.5,30.05,SE,142,1.0,1.0,34,0.00,,,0.00,WUHU216HW,2015-03-27 09:32:00,
2015-03-27 02:37:00,59.0,30.5,30.05,SSE,150,1.0,1.0,34,0.00,,,0.00,WUHU216HW,2015-03-27 09:37:00,
2015-03-27 02:42:00,59.0,29.8,30.05,SE,139,1.0,2.0,33,0.00,,,0.00,WUHU216HW,2015-03-27 09:42:00,
2015-03-27 02:47:00,58.9,30.3,30.05,SE,129,1.0,2.0,34,0.00,,,0.00,WUHU216HW,2015-03-27 09:47:00,
2015-03-27 02:52:00,58.9,30.3,30.05,ESE,113,0.0,0.0,34,0.00,,,0.00,WUHU216HW,2015-03-27 09:52:00,
2015-03-27 02:57:00,59.0,30.5,30.05,SE,129,1.0,1.0,34,0.00,,,0.00,WUHU216HW,2015-03-27 09:57:00,
2015-03-27 03:02:00,58.9,30.3,30.05,SSE,153,2.0,2.0,34,0.00,,,0.00,WUHU216HW,2015-03-27 10:02:00,
2015-03-27 03:07:00,58.7,30.3,30.05,SSE,158,1.0,1.0,34,0.00,,,0.00,WUHU216HW,2015-03-27 10:07:00,
2015-03-27 03:12:00,58.3,29.9,30.05,SE,135,0.0,0.0,34,0.00,,,0.00,WUHU216HW,2015-03-27 10:12:00,
2015-03-27 03:17:00,58.3,29.9,30.05,SE,135,0.0,0.0,34,0.00,,,0.00,WUHU216HW,2015-03-27 10:17:00,
2015-03-27 03:22:00,58.3,29.9,30.05,SE,131,1.0,1.0,34,0.00,,,0.00,WUHU216HW,2015-03-27 10:22:00,
2015-03-27 03:27:00,58.3,29.9,30.05,ESE,113,0.0,0.0,34,0.00,,,0.00,WUHU216HW,2015-03-27 10:27:00,
2015-03-27 03:32:00,58.3,29.9,30.05,SE,138,1.0,1.0,34,0.00,,,0.00,WUHU216HW,2015-03-27 10:32:00,
2015-03-27 03:37:00,58.1,29.7,30.04,SE,135,0.0,1.0,34,0.00,,,0.00,WUHU216HW,2015-03-27 10:37:00,
2015-03-27 03:42:00,58.1,29.7,30.04,SE,124,1.0,1.0,34,0.00,,,0.00,WUHU216HW,2015-03-27 10:42:00,
2015-03-27 03:47:00,58.0,29.5,30.04,ESE,115,1.0,1.0,34,0.00,,,0.00,WUHU216HW,2015-03-27 10:47:00,
2015-03-27 03:52:00,58.0,29.5,30.04,SE,135,1.0,2.0,34,0.00,,,0.00,WUHU216HW,2015-03-27 10:52:00,
2015-03-27 03:57:00,58.0,29.5,30.04,ESE,122,1.0,2.0,34,0.00,,,0.00,WUHU216HW,2015-03-27 10:57:00,
2015-03-27 04:02:00,57.8,29.4,30.04,SE,135,1.0,2.0,34,0.00,,,0.00,WUHU216HW,2015-03-27 11:02:00,
2015-03-27 04:07:00,57.8,30.1,30.04,SE,139,1.0,2.0,35,0.00,,,0.00,WUHU216HW,2015-03-27 11:07:00,
2015-03-27 04:12:00,57.6,30.0,30.04,SE,135,0.0,0.0,35,0.00,,,0.00,WUHU216HW,2015-03-27 11:12:00,
2015-03-27 04:17:00,57.6,30.6,30.04,SE,135,1.0,1.0,36,0.00,,,0.00,WUHU216HW,2015-03-27 11:17:00,
2015-03-27 04:22:00,57.4,30.5,30.04,SSE,151,1.0,1.0,36,0.00,,,0.00,WUHU216HW,2015-03-27 11:22:00,
2015-03-27 04:27:00,57.2,30.3,30.04,SE,135,1.0,1.0,36,0.00,,,0.00,WUHU216HW,2015-03-27 11:27:00,
2015-03-27 04:32:00,57.2,30.3,30.04,ESE,115,1.0,1.0,36,0.00,,,0.00,WUHU216HW,2015-03-27 11:32:00,
2015-03-27 04:37:00,57.2,30.3,30.04,ESE,113,1.0,1.0,36,0.00,,,0.00,WUHU216HW,2015-03-27 11:37:00,
2015-03-27 04:42:00,57.1,30.2,30.04,SE,135,1.0,2.0,36,0.00,,,0.00,WUHU216HW,2015-03-27 11:42:00,
2015-03-27 04:47:00,57.1,30.2,30.04,SE,132,1.0,2.0,36,0.00,,,0.00,WUHU216HW,2015-03-27 11:47:00,
2015-03-27 04:52:00,57.1,30.9,30.04,ESE,108,1.0,2.0,37,0.00,,,0.00,WUHU216HW,2015-03-27 11:52:00,
2015-03-27 04:57:00,56.9,30.7,30.04,ESE,118,1.0,2.0,37,0.00,,,0.00,WUHU216HW,2015-03-27 11:57:00,